Wetbulb
57.56 58.59 57.67 57.98 58.21 57.72 57.84 57.65 58.26 58.90 59.25 59.20 60.22 59.93 59.36 59.05 59.62 59.65 59.68 58.62 58.89 59.20
58.48 58.81 58.63 60.16 58.96 58.14 58.61 59.85 59.40 59.48 59.07 60.07 60.42 59.78 59.78 60.31 60.85 60.45 60.27 59.83 59.28 59.24
59.39 59.95 59.31 59.47 57.65 58.60 58.62 59.66 60.01 59.95 59.47 59.67 59.87 60.66 61.36 61.29 60.43 60.96 61.29 61.66 60.42 60.42
59.55 60.25 59.79 58.28 58.46 58.71 58.68 59.46 60.34 60.34 60.47 60.41 60.59 60.76 60.44 59.20 60.14 60.48 60.58 60.99 60.88 60.00
59.80 59.95 59.86 58.85 58.44 59.13 59.10 60.21 60.61 61.06 60.87 61.05 60.33 60.23 60.35 60.25 60.20 59.80 59.51 59.78 60.76 60.58
59.13 59.25 59.44 58.00 58.62 59.49 59.58 60.30 61.33 61.34 60.61 61.05 60.68 59.97 60.01 59.81 59.45 59.28 59.55 59.88 60.51 60.57
58.53 58.91 59.58 59.11 59.02 59.55 60.20 60.82 60.66 61.00 61.90 61.64 60.84 61.25 60.76 59.98 59.12 58.98 59.68 60.22 61.01 60.98
57.36 58.57 59.90 59.80 60.58 60.12 59.95 60.37 61.26 62.18 62.16 61.48 61.40 62.18 61.55 61.11 60.52 59.82 59.78 60.40 60.85 60.86
57.65 58.73 59.06 59.36 59.37 60.27 59.92 57.64 59.15 60.41 60.64 60.45 61.05 51.82 54.51 59.56 60.82 60.62 60.18 59.88 60.43 60.20
58.83 58.84 58.43 58.95 58.85 58.34 56.26 55.59 55.05 56.47 57.89 57.81 57.78 50.37 51.82 54.72 61.34 61.00 60.32 60.16 60.39 61.13
58.27 57.92 56.92 56.50 56.57 56.68 54.84 54.37 52.96 53.16 53.66 55.57 55.85 49.82 50.73 52.90 61.26 60.43 60.24 60.01 60.10 60.70
57.99 57.45 56.63 55.09 55.65 55.42 54.11 52.97 52.43 51.69 51.27 52.59 52.64 47.45 48.55 55.77 58.92 59.07 58.11 58.72 58.53 58.02
57.37 56.88 56.19 54.93 55.47 55.43 54.14 53.38 52.83 51.48 50.96 48.50 48.01 46.30 48.96 54.91 57.82 55.75 54.65 55.00 56.03 50.58
55.68 55.87 56.38 55.43 55.59 55.69 55.44 54.04 51.97 51.18 49.92 48.98 46.96 44.39 46.20 49.32 55.40 54.79 51.90 52.43 52.83 49.11
MSLP
1008.39 1008.43 1008.48 1008.36 1008.37 1008.48 1008.35 1008.33 1008.42 1008.57 1008.72 1008.79 1008.89 1009.09 1009.45 1009.84 1010.01 1010.16 1010.42 1010.69 1011.09 1011.45
1008.31 1008.31 1008.37 1008.35 1008.34 1008.44 1008.36 1008.39 1008.53 1008.75 1008.87 1008.99 1009.11 1009.26 1009.58 1009.89 1010.19 1010.51 1010.83 1011.18 1011.43 1012.02
1008.23 1008.30 1008.41 1008.50 1008.55 1008.45 1008.49 1008.46 1008.58 1008.87 1009.08 1009.12 1009.31 1009.49 1009.71 1010.13 1010.60 1010.90 1011.23 1011.59 1011.99 1012.27
1008.36 1008.49 1008.61 1008.74 1008.69 1008.62 1008.64 1008.59 1008.75 1008.85 1009.10 1009.41 1009.67 1009.80 1009.84 1010.35 1010.74 1011.18 1011.63 1012.06 1012.48 1012.87
1008.46 1008.71 1008.86 1008.91 1008.86 1008.88 1008.84 1008.79 1008.77 1008.97 1009.28 1009.66 1009.96 1010.19 1010.37 1010.70 1011.18 1011.50 1012.03 1012.48 1012.84 1013.27
1008.59 1008.96 1009.16 1009.23 1009.06 1009.15 1009.07 1009.07 1009.17 1009.30 1009.60 1009.88 1010.31 1010.59 1010.92 1011.22 1011.56 1012.01 1012.43 1012.82 1013.05 1013.52
1008.71 1009.06 1009.25 1009.38 1009.29 1009.25 1009.38 1009.35 1009.40 1009.58 1009.75 1010.21 1010.65 1010.97 1011.38 1011.82 1012.21 1012.67 1013.07 1013.44 1013.65 1013.97
1008.86 1009.00 1009.32 1009.51 1009.53 1009.56 1009.65 1009.69 1009.64 1009.96 1010.35 1010.64 1010.99 1011.35 1011.74 1012.18 1012.62 1012.98 1013.41 1013.73 1014.13 1014.50
1008.92 1009.15 1009.44 1009.64 1009.82 1009.93 1010.14 1010.17 1010.10 1010.33 1010.69 1011.04 1011.42 1011.61 1012.00 1012.41 1012.84 1013.25 1013.62 1014.10 1014.46 1014.88
1008.83 1009.24 1009.50 1009.79 1010.01 1010.36 1010.65 1010.73 1010.88 1011.04 1011.21 1011.55 1011.86 1011.96 1012.36 1012.82 1013.18 1013.52 1013.92 1014.33 1014.69 1015.11
1008.75 1009.21 1009.59 1009.98 1010.28 1010.59 1010.95 1011.20 1011.35 1011.57 1011.71 1012.02 1012.48 1012.55 1012.65 1013.14 1013.59 1013.90 1014.38 1014.72 1015.10 1015.42
1008.55 1009.07 1009.59 1010.01 1010.39 1010.85 1011.27 1011.62 1011.76 1011.82 1012.06 1012.47 1012.96 1013.05 1013.30 1013.62 1013.92 1014.31 1014.72 1015.17 1015.55 1015.83
1008.27 1008.91 1009.46 1010.02 1010.40 1010.75 1011.22 1011.66 1011.95 1012.31 1012.35 1012.62 1013.12 1013.40 1013.63 1013.85 1014.23 1014.73 1015.12 1015.43 1015.74 1016.02
1007.92 1008.63 1009.14 1009.86 1010.32 1010.81 1011.32 1011.77 1012.14 1012.49 1012.74 1012.91 1013.08 1013.57 1013.71 1013.95 1014.32 1014.70 1015.21 1015.61 1016.09 1016.28
Wind_Speed
3 3 2 0 1 1 0 3 4 4 3 3 4 5 4 3 3 4 3 6 4 4
2 3 2 0 2 2 2 2 4 4 4 3 4 5 6 5 5 6 7 5 6 5
3 1 1 2 3 3 1 1 4 5 5 5 5 6 8 7 7 10 6 6 8 6
3 4 4 4 3 3 2 1 5 5 6 6 7 6 8 7 8 11 9 8 9 8
5 5 5 4 4 4 4 3 5 5 6 6 7 7 9 8 9 11 9 8 9 10
5 6 5 3 3 5 4 5 6 6 6 7 8 8 7 8 10 9 9 7 8 9
4 6 5 4 3 4 4 5 5 5 6 6 6 8 8 9 8 9 7 6 8 8
5 6 5 5 4 5 4 4 5 7 6 6 6 6 9 8 7 8 7 7 8 7
6 6 6 5 5 5 5 5 5 6 7 6 4 11 11 9 7 7 7 8 8 9
6 6 6 6 5 6 6 5 5 5 6 5 6 14 13 11 7 6 6 7 8 8
6 7 6 7 6 4 4 5 5 6 6 6 5 14 14 11 7 6 6 7 8 8
7 7 7 7 7 6 6 4 3 4 7 7 4 7 10 8 6 6 6 5 5 7
9 7 7 7 7 5 5 5 5 5 5 8 6 7 10 8 4 5 4 3 4 8
9 9 8 7 4 6 5 6 5 6 4 6 6 6 10 11 5 6 5 5 4 3
Wind_Direction
139 121 123 121 23 15 150 155 150 149 140 161 142 136 128 124 131 132 110 123 120 109
171 143 184 124 21 66 115 154 150 157 159 156 129 115 114 113 108 98 108 97 97 93
181 141 118 54 57 107 118 144 148 144 147 135 110 110 114 110 107 109 104 112 109 92
118 96 93 82 59 61 75 165 119 132 125 125 122 115 100 95 109 112 114 114 117 111
126 114 91 71 72 62 88 89 103 106 104 103 102 108 118 118 120 126 113 110 124 123
132 114 109 88 83 90 85 85 113 118 118 119 117 111 102 109 122 129 129 124 129 131
156 130 134 132 115 101 102 99 104 112 112 108 108 115 110 108 104 114 119 112 121 135
162 135 133 135 126 104 80 79 103 103 91 105 115 126 122 121 114 114 117 111 117 111
152 144 149 141 137 111 86 74 93 93 93 85 90 123 119 121 124 124 126 119 113 121
153 152 159 145 137 116 99 101 100 106 114 114 119 127 123 128 140 138 132 130 132 134
149 152 144 132 152 129 113 116 105 106 108 111 114 137 150 139 132 125 133 141 146 149
153 155 143 130 140 130 122 115 110 115 112 113 120 156 143 119 121 126 131 136 154 145
158 157 154 148 144 143 139 141 134 119 116 122 122 158 158 136 128 120 119 127 165 169
161 161 163 155 145 139 142 133 137 138 144 128 133 117 145 143 140 148 147 152 151 142